Weather History for KACK - November, 2013

Change the Weather History Date:

Friday, November 1, 2013

  Actual Average Record
Temperature  
Mean Temperature 60 °F -  
Max Temperature 66 °F 56 °F 71 °F (1971)
Min Temperature 57 °F 42 °F 28 °F (1975)
Degree Days  
Heating Degree Days 4    
Growing Degree Days 10 (Base 50)    
Moisture  
Dew Point 60 °F    
Average Humidity 93    
Maximum Humidity 100    
Minimum Humidity 87    
Precipitation  
Precipitation 0.05 in - - ()
Sea Level Pressure  
Sea Level Pressure 29.72 in    
Wind  
Wind Speed 21 mph (SSW)    
Max Wind Speed 28 mph    
Max Gust Speed 39 mph    
Visibility 6 miles    
Events Rain    
Averages and records for this station are not official NWS values.
T = Trace of Precipitation, MM = Missing Value Source: NWS Daily Summary

Daily Weather History Graph

Daily Weather History Graph

Search for Another Location

Airport or City:

Trip Planner

Search our weather history database for the weather conditions in past years. The results will help you decide how hot, cold, wet, or windy it might be!

Date:

Astronomy

Nov. 01, 2013 Rise Set
Actual Time 7:11 AM EDT 5:35 PM EDT
Civil Twilight 6:43 AM EDT 6:03 PM EDT
Nautical Twilight 6:10 AM EDT 6:36 PM EDT
Astronomical Twilight 5:38 AM EDT 7:08 PM EDT
Moon 4:59 AM EDT 4:27 PM EDT
Length of Visible Light 11h 20m
Length of Day
10h 23m
Waning Crescent, 4% of the Moon is Illuminated
Nov 1
Waning Crescent
Nov 3
New
Nov 10
First Quarter
Nov 17
Full
Nov 25
Last Quarter

Hourly Weather History & Observations

Time (EDT) Temp. Dew Point Humidity Pressure Visibility Wind Dir Wind Speed Gust Speed Precip Events Conditions
12:53 AM 62.1 °F 59.0 °F 90% 29.89 in 5.0 mi South 18.4 mph - 0.01 in Rain Light Rain
1:14 AM 62.6 °F 60.8 °F 94% 29.87 in 6.0 mi South 20.7 mph 28.8 mph 0.00 in Rain Light Rain
1:37 AM 62.6 °F 60.8 °F 94% 29.86 in 5.0 mi South 20.7 mph 27.6 mph 0.00 in   Overcast
1:53 AM 62.1 °F 61.0 °F 96% 29.85 in 6.0 mi South 23.0 mph - 0.00 in   Overcast
2:03 AM 62.6 °F 60.8 °F 94% 29.84 in 6.0 mi South 21.9 mph 29.9 mph N/A   Overcast
2:50 AM 62.6 °F 60.8 °F 94% 29.83 in 6.0 mi SSW 20.7 mph 27.6 mph N/A   Overcast
2:53 AM 62.1 °F 61.0 °F 96% 29.83 in 6.0 mi SSW 19.6 mph - N/A   Overcast
3:14 AM 60.8 °F 60.8 °F 100% 29.81 in 6.0 mi South 21.9 mph 28.8 mph N/A   Overcast
3:48 AM 62.6 °F 60.8 °F 94% 29.79 in 6.0 mi South 21.9 mph - N/A   Overcast
3:53 AM 62.1 °F 61.0 °F 96% 29.80 in 6.0 mi South 20.7 mph 29.9 mph N/A   Mostly Cloudy
4:41 AM 62.6 °F 60.8 °F 94% 29.79 in 6.0 mi SSW 23.0 mph 28.8 mph N/A   Mostly Cloudy
4:53 AM 62.1 °F 61.0 °F 96% 29.78 in 6.0 mi SSW 23.0 mph 31.1 mph N/A   Mostly Cloudy
5:37 AM 62.6 °F 60.8 °F 94% 29.76 in 6.0 mi SSW 21.9 mph 34.5 mph N/A   Mostly Cloudy
5:53 AM 63.0 °F 61.0 °F 93% 29.77 in 6.0 mi SSW 21.9 mph 31.1 mph N/A   Mostly Cloudy
6:53 AM 62.1 °F 61.0 °F 96% 29.76 in 6.0 mi SSW 19.6 mph - N/A   Mostly Cloudy
7:38 AM 62.6 °F 60.8 °F 94% 29.74 in 5.0 mi South 21.9 mph - N/A   Overcast
7:53 AM 63.0 °F 61.0 °F 93% 29.75 in 5.0 mi South 23.0 mph 28.8 mph N/A   Overcast
8:53 AM 64.0 °F 61.0 °F 90% 29.74 in 6.0 mi SSW 26.5 mph 33.4 mph N/A   Mostly Cloudy
9:17 AM 64.4 °F 60.8 °F 88% 29.73 in 6.0 mi SSW 24.2 mph 34.5 mph N/A   Overcast
9:53 AM 64.9 °F 61.0 °F 87% 29.73 in 6.0 mi SSW 27.6 mph 34.5 mph N/A   Overcast
10:17 AM 64.4 °F 60.8 °F 88% 29.72 in 6.0 mi SSW 24.2 mph 39.1 mph N/A   Overcast
10:53 AM 64.0 °F 62.1 °F 93% 29.71 in 4.0 mi SSW 26.5 mph 38.0 mph 0.00 in Rain Light Rain
11:53 AM 64.9 °F 62.1 °F 90% 29.67 in 5.0 mi South 27.6 mph 38.0 mph 0.01 in   Overcast
12:24 PM 64.4 °F 62.6 °F 94% 29.66 in 5.0 mi South 24.2 mph 35.7 mph N/A   Overcast
12:53 PM 64.0 °F 62.1 °F 93% 29.65 in 5.0 mi SSW 26.5 mph 32.2 mph N/A   Overcast
1:53 PM 64.9 °F 62.1 °F 90% 29.63 in 5.0 mi SSW 23.0 mph 36.8 mph 0.00 in   Overcast
2:00 PM 64.4 °F 62.6 °F 94% 29.63 in 5.0 mi SSW 27.6 mph 34.5 mph N/A   Overcast
2:08 PM 64.4 °F 60.8 °F 88% 29.63 in 6.0 mi SSW 23.0 mph 34.5 mph N/A   Overcast
2:47 PM 64.4 °F 60.8 °F 88% 29.63 in 3.0 mi WSW 24.2 mph 29.9 mph N/A   Overcast
2:53 PM 63.0 °F 61.0 °F 93% 29.63 in 4.0 mi SW 25.3 mph 32.2 mph 0.01 in Rain Light Rain
3:53 PM 59.0 °F 57.0 °F 93% 29.62 in 4.0 mi SW 13.8 mph - 0.02 in Rain Light Rain
4:35 PM 59.0 °F 57.2 °F 94% 29.62 in 4.0 mi SW 13.8 mph - 0.00 in   Overcast
4:53 PM 57.9 °F 57.0 °F 97% 29.62 in 5.0 mi SW 13.8 mph - 0.00 in   Overcast
5:53 PM 59.0 °F 57.9 °F 96% 29.62 in 5.0 mi SW 16.1 mph 24.2 mph N/A   Overcast
6:53 PM 60.1 °F 59.0 °F 96% 29.64 in 10.0 mi SW 20.7 mph 26.5 mph N/A   Overcast
7:36 PM 60.8 °F 57.2 °F 88% 29.65 in 10.0 mi SW 21.9 mph 31.1 mph N/A   Overcast
7:53 PM 60.1 °F 57.9 °F 93% 29.66 in 10.0 mi SW 18.4 mph 25.3 mph N/A   Overcast
8:53 PM 60.1 °F 57.0 °F 90% 29.66 in 10.0 mi SW 17.3 mph - N/A   Mostly Cloudy
9:53 PM 60.1 °F 57.9 °F 93% 29.67 in 8.0 mi SW 16.1 mph - N/A   Clear
10:33 PM 60.8 °F 59.0 °F 94% 29.67 in 5.0 mi WSW 17.3 mph - N/A   Partly Cloudy
10:53 PM 60.1 °F 59.0 °F 96% 29.68 in 5.0 mi WSW 15.0 mph - N/A   Partly Cloudy
11:10 PM 60.8 °F 59.0 °F 94% 29.68 in 4.0 mi SW 15.0 mph - N/A   Mostly Cloudy
11:41 PM 60.8 °F 60.8 °F 100% 29.67 in 1.8 mi WSW 16.1 mph - N/A   Overcast
11:53 PM 60.1 °F 60.1 °F 100% 29.68 in 1.0 mi WSW 16.1 mph 24.2 mph N/A   Mist